GJZ 03 (62292 NORAD) Tracking and Keplerian Element Data

This shows tracking and keplerian element data for the satellite.

Feedback or suggestion? Click here.




ElementValue
Catalog62292
NameGJZ 03
Epoch Orbit740
Epoch Day35.22477524
Epoch Year2025
RAAN338.1467
Inclination59.9149
Eccentricity0.0015591
Argument of Perigee330.4514
Mean Anonmoly29.5611
Mean Motion13.75102504
Decay Rate1.15E-06
L11 62292U 24238C 25035.22477524 .00000115 00000+0 24419-3 0 9997
L22 62292 59.9149 338.1467 0015591 330.4514 29.5611 13.75102504 7406



Live tracking and technical data element details for GJZ 03 (NORAD 62292). GJZ 03 can be tracked NOW for your location showing map with azimuth and elevation plus other details from your city location.







IsCatalogInMostPopularTable: catalog: 62292, numindb: 11
Update: records affected: 1



GetName: 62292 GJZ 03

Hit Count: updated at: Sat, 24 May 2025 16:17:36 GMT